TimePST,TemperatureF,Dew PointF,Humidity,Sea Level PressureIn,VisibilityMPH,Wind Direction,Wind SpeedMPH,Gust SpeedMPH,PrecipitationIn,Events,Conditions,WindDirDegrees,DateUTC
12:58 AM,21.4,21.4,100,30.51,10.0,Calm,Calm,-,N/A,,Clear,0,2013-01-20 08:58:00
12:59 AM,21.2,21.2,100,30.39,10.0,NNW,1.2,-,N/A,Snow,Light Snow,340,2013-01-20 08:59:00
1:08 AM,21.2,21.2,100,30.38,10.0,East,2.3,-,N/A,,Clear,100,2013-01-20 09:08:00
1:18 AM,21.2,21.2,100,30.38,4.0,East,3.5,-,N/A,,Clear,80,2013-01-20 09:18:00
1:23 AM,19.4,19.4,100,30.39,2.0,ENE,1.2,-,N/A,,Clear,60,2013-01-20 09:23:00
1:28 AM,19.4,19.4,100,30.39,2.5,NNE,2.3,-,N/A,,Clear,20,2013-01-20 09:28:00
1:33 AM,21.2,21.2,100,30.39,6.0,North,3.5,-,N/A,Snow,Light Snow,10,2013-01-20 09:33:00
1:48 AM,21.2,21.2,100,30.40,7.0,North,3.5,-,N/A,Snow,Light Snow,350,2013-01-20 09:48:00
1:58 AM,20.8,20.8,100,30.51,6.0,NW,3.5,-,0.00,Snow,Light Snow,320,2013-01-20 09:58:00
2:08 AM,19.4,19.4,100,30.42,4.0,NW,5.8,-,N/A,Snow,Light Snow,310,2013-01-20 10:08:00
2:10 AM,19.4,19.4,100,30.42,4.0,NW,5.8,-,N/A,,Clear,310,2013-01-20 10:10:00
2:15 AM,19.4,19.4,100,30.42,7.0,NW,2.3,-,N/A,,Clear,310,2013-01-20 10:15:00
2:20 AM,21.2,21.2,100,30.41,10.0,WNW,3.5,-,N/A,,Clear,290,2013-01-20 10:20:00
2:25 AM,21.2,21.2,100,30.41,8.0,Variable,2.3,-,N/A,,Clear,0,2013-01-20 10:25:00
2:35 AM,14.0,14.0,100,30.41,4.0,ESE,2.3,-,N/A,,Clear,110,2013-01-20 10:35:00
2:45 AM,14.0,14.0,100,30.41,2.5,NNE,1.2,-,N/A,,Clear,30,2013-01-20 10:45:00
2:50 AM,15.8,15.8,100,30.41,1.2,NNE,2.3,-,N/A,,Clear,30,2013-01-20 10:50:00
2:55 AM,17.6,17.6,100,30.41,1.5,NNE,3.5,-,N/A,,Clear,30,2013-01-20 10:55:00
2:58 AM,18.0,18.0,100,30.41,1.8,NE,3.5,-,0.00,,Clear,40,2013-01-20 10:58:00
3:03 AM,19.4,19.4,100,30.41,5.0,NNE,3.5,-,N/A,,Clear,30,2013-01-20 11:03:00
3:08 AM,19.4,19.4,100,30.42,6.0,NW,3.5,-,N/A,Snow,Light Snow,320,2013-01-20 11:08:00
3:13 AM,17.6,17.6,100,30.41,3.0,WNW,3.5,-,N/A,Snow,Light Snow,290,2013-01-20 11:13:00
3:17 AM,15.8,15.8,100,30.41,3.0,North,1.2,-,N/A,,Clear,350,2013-01-20 11:17:00
3:22 AM,17.6,17.6,100,30.41,4.0,NNW,1.2,-,N/A,,Clear,330,2013-01-20 11:22:00
3:27 AM,17.6,17.6,100,30.42,2.0,WNW,2.3,-,N/A,,Clear,290,2013-01-20 11:27:00
3:32 AM,17.6,17.6,100,30.42,1.8,NW,3.5,-,N/A,,Clear,320,2013-01-20 11:32:00
3:33 AM,17.6,17.6,100,30.42,1.8,NW,3.5,-,N/A,Snow,Light Snow,320,2013-01-20 11:33:00
3:38 AM,19.4,19.4,100,30.41,4.0,NNW,3.5,-,N/A,Snow,Light Snow,330,2013-01-20 11:38:00
3:48 AM,19.4,19.4,100,30.41,3.0,NNW,2.3,-,N/A,Snow,Light Snow,330,2013-01-20 11:48:00
3:52 AM,17.6,17.6,100,30.42,1.8,NW,2.3,-,N/A,,Clear,320,2013-01-20 11:52:00
3:58 AM,17.1,17.1,100,30.41,1.2,Calm,Calm,-,0.00,,Clear,0,2013-01-20 11:58:00
4:03 AM,15.8,15.8,100,30.41,1.0,Calm,Calm,-,N/A,,Clear,0,2013-01-20 12:03:00
4:13 AM,14.0,14.0,100,30.41,0.8,South,2.3,-,N/A,,Clear,190,2013-01-20 12:13:00
4:14 AM,14.0,14.0,100,30.41,0.8,SSW,1.2,-,N/A,Snow,Light Snow,200,2013-01-20 12:14:00
4:19 AM,14.0,14.0,100,30.41,0.8,SSW,2.3,-,N/A,Snow,Light Snow,200,2013-01-20 12:19:00
4:29 AM,15.8,15.8,100,30.41,0.8,Calm,Calm,-,N/A,Snow,Light Snow,0,2013-01-20 12:29:00
4:30 AM,15.8,15.8,100,30.41,0.8,Calm,Calm,-,N/A,,Clear,0,2013-01-20 12:30:00
4:35 AM,15.8,15.8,100,30.41,1.0,Calm,Calm,-,N/A,,Clear,0,2013-01-20 12:35:00
4:40 AM,15.8,15.8,100,30.41,0.8,Calm,Calm,-,N/A,,Clear,0,2013-01-20 12:40:00
4:50 AM,15.8,15.8,100,30.40,0.8,SSE,2.3,-,N/A,,Clear,160,2013-01-20 12:50:00
4:55 AM,15.8,15.8,100,30.40,0.8,SSE,2.3,-,N/A,,Clear,160,2013-01-20 12:55:00
4:56 AM,15.8,15.8,100,30.40,0.8,SSE,2.3,-,N/A,Snow,Light Snow,160,2013-01-20 12:56:00
4:59 AM,15.3,15.3,100,30.40,0.8,SSE,2.3,-,0.00,Snow,Light Snow,160,2013-01-20 12:59:00
5:00 AM,15.8,15.8,100,30.40,0.8,SSE,2.3,-,N/A,,Clear,150,2013-01-20 13:00:00
5:05 AM,15.8,15.8,100,30.40,0.8,South,2.3,-,N/A,,Clear,170,2013-01-20 13:05:00
5:15 AM,15.8,15.8,100,30.40,1.0,Calm,Calm,-,N/A,,Clear,0,2013-01-20 13:15:00
5:20 AM,15.8,15.8,100,30.40,0.8,SSW,2.3,-,N/A,,Clear,210,2013-01-20 13:20:00
5:25 AM,17.6,17.6,100,30.40,0.5,SW,2.3,-,N/A,Fog,Light Freezing Fog,220,2013-01-20 13:25:00
5:35 AM,15.8,15.8,100,30.40,0.8,Calm,Calm,-,N/A,,Clear,0,2013-01-20 13:35:00
5:40 AM,17.6,17.6,100,30.40,0.8,Calm,Calm,-,N/A,,Clear,0,2013-01-20 13:40:00
5:45 AM,17.6,17.6,100,30.40,1.0,NNW,2.3,-,N/A,,Clear,330,2013-01-20 13:45:00
5:46 AM,17.6,17.6,100,30.41,1.0,NNW,2.3,-,N/A,Snow,Light Snow,330,2013-01-20 13:46:00
5:51 AM,17.6,17.6,100,30.40,1.5,NNW,2.3,-,N/A,Snow,Light Snow,340,2013-01-20 13:51:00
5:55 AM,17.6,17.6,100,30.40,2.0,NNW,2.3,-,N/A,,Clear,340,2013-01-20 13:55:00
5:58 AM,18.1,18.1,100,30.40,1.8,North,1.2,-,0.00,,Clear,360,2013-01-20 13:58:00
6:03 AM,17.6,17.6,100,30.40,1.0,NE,2.3,-,N/A,,Clear,40,2013-01-20 14:03:00
6:08 AM,14.0,14.0,100,30.40,1.0,NNE,2.3,-,N/A,,Clear,30,2013-01-20 14:08:00
6:28 AM,15.8,15.8,100,30.41,1.5,NNW,5.8,-,N/A,,Clear,340,2013-01-20 14:28:00
6:33 AM,15.8,15.8,100,30.41,6.0,NNW,5.8,-,N/A,,Clear,340,2013-01-20 14:33:00
6:38 AM,15.8,15.8,100,30.41,10.0,NNW,5.8,-,N/A,,Clear,340,2013-01-20 14:38:00
6:58 AM,13.1,12.9,99,30.41,7.0,North,2.3,-,N/A,,Clear,10,2013-01-20 14:58:00
7:13 AM,12.2,12.2,100,30.41,1.0,NNE,1.2,-,N/A,,Clear,20,2013-01-20 15:13:00
7:18 AM,12.2,12.2,100,30.41,0.5,NE,1.2,-,N/A,Fog,Light Freezing Fog,40,2013-01-20 15:18:00
7:23 AM,12.2,12.2,100,30.42,0.5,NNE,2.3,-,N/A,Fog,Light Freezing Fog,30,2013-01-20 15:23:00
7:53 AM,12.2,12.2,100,30.42,0.2,East,2.3,-,N/A,Fog,Light Freezing Fog,100,2013-01-20 15:53:00
7:58 AM,12.2,12.2,100,30.42,0.2,Calm,Calm,-,N/A,Fog,Light Freezing Fog,0,2013-01-20 15:58:00
8:03 AM,12.2,12.2,100,30.42,0.2,Calm,Calm,-,N/A,Fog,Light Freezing Fog,0,2013-01-20 16:03:00
8:08 AM,12.2,12.2,100,30.42,0.5,Calm,Calm,-,N/A,Fog,Light Freezing Fog,0,2013-01-20 16:08:00
8:13 AM,12.2,12.2,100,30.43,0.8,Calm,Calm,-,N/A,,Clear,0,2013-01-20 16:13:00
8:28 AM,12.2,12.2,100,30.43,1.2,SSE,1.2,-,N/A,,Clear,160,2013-01-20 16:28:00
8:33 AM,14.0,14.0,100,30.43,1.5,SE,1.2,-,N/A,,Clear,140,2013-01-20 16:33:00
8:38 AM,14.0,14.0,100,30.43,1.2,Calm,Calm,-,N/A,,Clear,0,2013-01-20 16:38:00
8:43 AM,14.0,14.0,100,30.43,0.8,Calm,Calm,-,N/A,,Clear,0,2013-01-20 16:43:00
8:48 AM,14.0,14.0,100,30.44,0.8,Calm,Calm,-,N/A,,Clear,0,2013-01-20 16:48:00
8:58 AM,15.1,15.1,100,30.44,0.8,Calm,Calm,-,N/A,,Clear,0,2013-01-20 16:58:00
9:03 AM,15.8,15.8,100,30.44,1.0,Calm,Calm,-,N/A,,Clear,0,2013-01-20 17:03:00
9:08 AM,15.8,15.8,100,30.44,1.2,Calm,Calm,-,N/A,,Clear,0,2013-01-20 17:08:00
9:13 AM,15.8,15.8,100,30.44,1.0,Calm,Calm,-,N/A,,Clear,0,2013-01-20 17:13:00
9:18 AM,17.6,17.6,100,30.44,1.2,Calm,Calm,-,N/A,,Clear,0,2013-01-20 17:18:00
9:23 AM,17.6,17.6,100,30.44,3.0,NW,1.2,-,N/A,,Clear,310,2013-01-20 17:23:00
9:29 AM,19.4,19.4,100,30.45,10.0,NW,3.5,-,N/A,,Clear,320,2013-01-20 17:29:00
9:37 AM,17.6,17.6,100,30.45,10.0,NNW,2.3,-,N/A,,Clear,330,2013-01-20 17:37:00
9:54 AM,19.4,19.4,100,30.45,10.0,ENE,2.3,-,N/A,,Clear,60,2013-01-20 17:54:00
9:58 AM,19.2,19.2,100,30.45,10.0,ENE,2.3,-,0.00,,Clear,70,2013-01-20 17:58:00
10:20 AM,19.4,19.4,100,30.45,10.0,ENE,1.2,-,N/A,,Clear,60,2013-01-20 18:20:00
10:58 AM,21.2,21.2,100,30.57,10.0,ENE,3.5,-,0.00,,Clear,60,2013-01-20 18:58:00
11:58 AM,23.2,23.2,100,30.53,10.0,ENE,2.3,-,N/A,,Clear,60,2013-01-20 19:58:00
12:58 PM,24.1,24.1,100,30.52,10.0,East,2.3,-,N/A,,Clear,90,2013-01-20 20:58:00
12:59 PM,24.8,24.8,100,30.41,10.0,East,2.3,-,N/A,,Clear,80,2013-01-20 20:59:00
1:13 PM,24.8,24.8,100,30.41,10.0,Calm,Calm,-,N/A,,Clear,0,2013-01-20 21:13:00
1:31 PM,24.8,24.8,100,30.39,10.0,SE,2.3,-,N/A,,Clear,140,2013-01-20 21:31:00
1:58 PM,24.8,24.8,100,30.51,10.0,ESE,2.3,-,0.00,,Clear,120,2013-01-20 21:58:00
2:05 PM,24.8,24.8,100,30.40,10.0,East,2.3,-,N/A,,Clear,100,2013-01-20 22:05:00
2:58 PM,25.3,25.3,100,30.51,10.0,East,2.3,-,0.00,,Clear,90,2013-01-20 22:58:00
3:18 PM,24.8,24.8,100,30.39,10.0,East,1.2,-,N/A,,Clear,100,2013-01-20 23:18:00
3:30 PM,24.8,24.8,100,30.38,10.0,Calm,Calm,-,N/A,,Clear,0,2013-01-20 23:30:00
3:58 PM,26.1,26.1,100,30.50,10.0,NE,2.3,-,0.00,,Clear,50,2013-01-20 23:58:00
4:36 PM,24.8,24.8,100,30.39,10.0,North,3.5,-,N/A,,Clear,350,2013-01-21 00:36:00
4:58 PM,23.9,23.9,100,30.51,10.0,NNW,2.3,-,0.00,,Clear,330,2013-01-21 00:58:00
4:59 PM,23.0,23.0,100,30.38,10.0,NNW,2.3,-,N/A,,Clear,340,2013-01-21 00:59:00
5:58 PM,19.6,19.6,100,30.50,10.0,Calm,Calm,-,0.00,,Clear,0,2013-01-21 01:58:00
6:33 PM,19.4,19.4,100,30.37,6.0,WSW,2.3,-,N/A,,Clear,250,2013-01-21 02:33:00
6:38 PM,19.4,19.4,100,30.37,4.0,West,2.3,-,N/A,,Clear,270,2013-01-21 02:38:00
6:43 PM,19.4,19.4,100,30.37,2.5,West,1.2,-,N/A,,Clear,280,2013-01-21 02:43:00
6:48 PM,19.4,19.4,100,30.37,3.0,West,1.2,-,N/A,,Clear,280,2013-01-21 02:48:00
6:53 PM,19.4,19.4,100,30.36,9.0,Calm,Calm,-,N/A,,Clear,0,2013-01-21 02:53:00
6:58 PM,20.3,20.3,100,30.49,10.0,WSW,1.2,-,N/A,,Clear,240,2013-01-21 02:58:00
7:13 PM,21.2,21.2,100,30.36,1.8,West,1.2,-,N/A,,Clear,280,2013-01-21 03:13:00
7:18 PM,21.2,21.2,100,30.36,1.0,Calm,Calm,-,N/A,,Clear,0,2013-01-21 03:18:00
7:23 PM,21.2,21.2,100,30.36,0.8,Calm,Calm,-,N/A,,Clear,0,2013-01-21 03:23:00
7:28 PM,21.2,21.2,100,30.36,0.8,Calm,Calm,-,N/A,,Clear,0,2013-01-21 03:28:00
7:33 PM,21.2,21.2,100,30.36,0.5,West,1.2,-,N/A,Fog,Light Freezing Fog,260,2013-01-21 03:33:00
7:38 PM,19.4,19.4,100,30.36,0.2,WSW,2.3,-,N/A,Fog,Light Freezing Fog,240,2013-01-21 03:38:00
7:43 PM,19.4,19.4,100,30.36,0.5,WSW,1.2,-,N/A,Fog,Light Freezing Fog,240,2013-01-21 03:43:00
7:48 PM,19.4,19.4,100,30.35,0.8,SW,2.3,-,N/A,,Clear,220,2013-01-21 03:48:00
7:58 PM,17.6,17.6,100,30.49,0.5,SW,2.3,-,N/A,Fog,Light Freezing Fog,230,2013-01-21 03:58:00
8:03 PM,19.4,19.4,100,30.36,0.5,Calm,Calm,-,N/A,Fog,Light Freezing Fog,0,2013-01-21 04:03:00
8:08 PM,19.4,19.4,100,30.36,1.2,Calm,Calm,-,N/A,,Clear,0,2013-01-21 04:08:00
8:13 PM,19.4,19.4,100,30.35,1.5,Calm,Calm,-,N/A,,Clear,0,2013-01-21 04:13:00
8:23 PM,19.4,19.4,100,30.35,6.0,Calm,Calm,-,N/A,,Clear,0,2013-01-21 04:23:00
8:43 PM,15.8,15.8,100,30.35,1.0,WSW,2.3,-,N/A,,Clear,250,2013-01-21 04:43:00
8:48 PM,15.8,15.8,100,30.35,0.5,West,1.2,-,N/A,Fog,Light Freezing Fog,280,2013-01-21 04:48:00
8:58 PM,17.6,17.6,100,30.48,1.0,WSW,2.3,-,N/A,,Clear,240,2013-01-21 04:58:00
9:03 PM,19.4,19.4,100,30.35,4.0,West,2.3,-,N/A,,Clear,260,2013-01-21 05:03:00
9:13 PM,17.6,17.6,100,30.35,8.0,WNW,2.3,-,N/A,Snow,Light Snow,290,2013-01-21 05:13:00
9:36 PM,19.4,19.4,100,30.35,10.0,North,3.5,-,N/A,,Clear,350,2013-01-21 05:36:00
9:41 PM,17.6,17.6,100,30.35,9.0,NNW,3.5,-,N/A,Snow,Light Snow,340,2013-01-21 05:41:00
9:54 PM,17.6,17.6,100,30.35,8.0,North,1.2,-,N/A,,Clear,360,2013-01-21 05:54:00
9:58 PM,16.7,16.7,100,30.48,8.0,Calm,Calm,-,0.00,,Clear,0,2013-01-21 05:58:00
10:33 PM,12.2,12.2,100,30.35,0.8,Calm,Calm,-,N/A,,Clear,0,2013-01-21 06:33:00
10:38 PM,14.0,14.0,100,30.35,0.2,WSW,1.2,-,N/A,Fog,Light Freezing Fog,240,2013-01-21 06:38:00
10:43 PM,14.0,14.0,100,30.34,0.5,WSW,2.3,-,N/A,Fog,Light Freezing Fog,240,2013-01-21 06:43:00
10:48 PM,15.8,15.8,100,30.34,0.8,West,1.2,-,N/A,,Clear,270,2013-01-21 06:48:00
10:53 PM,15.8,15.8,100,30.34,0.2,NW,2.3,-,N/A,Fog,Light Freezing Fog,310,2013-01-21 06:53:00
10:58 PM,17.6,17.6,100,30.47,0.2,NW,1.2,-,N/A,Fog,Light Freezing Fog,320,2013-01-21 06:58:00
10:59 PM,17.6,17.6,100,30.34,0.5,NNW,1.2,-,N/A,Fog-Snow,Light Freezing Fog,330,2013-01-21 06:59:00
11:04 PM,17.6,17.6,100,30.35,2.0,North,2.3,-,N/A,Snow,Light Snow,360,2013-01-21 07:04:00
11:09 PM,15.8,15.8,100,30.35,8.0,North,2.3,-,N/A,Snow,Light Snow,360,2013-01-21 07:09:00
11:19 PM,14.0,14.0,100,30.34,10.0,Calm,Calm,-,N/A,,Clear,0,2013-01-21 07:19:00
11:22 PM,12.2,12.2,100,30.35,10.0,Calm,Calm,-,N/A,Snow,Light Snow,0,2013-01-21 07:22:00
11:32 PM,10.4,10.4,100,30.34,0.8,SSW,3.5,-,N/A,Snow,Light Snow,200,2013-01-21 07:32:00
11:34 PM,10.4,10.4,100,30.34,0.5,South,3.5,-,N/A,Fog,Light Freezing Fog,190,2013-01-21 07:34:00
11:39 PM,8.6,8.6,100,30.34,0.2,SSW,2.3,-,N/A,Fog,Light Freezing Fog,200,2013-01-21 07:39:00
11:58 PM,11.1,11.1,100,30.47,0.2,SW,1.2,-,0.00,Fog,Light Freezing Fog,220,2013-01-21 07:58:00